Time,TemperatureF,DewpointF,PressureIn,WindDirection,WindDirectionDegrees,WindSpeedMPH,WindSpeedGustMPH,Humidity,HourlyPrecipIn,Conditions,Clouds,dailyrainin,SoftwareType,DateUTC
2013-03-02 00:00:00,48.9,16.3,30.19,South,171,2.0,5.0,27,0.00,CLR,,0.00,WeatherDisplay:10.37,2013-03-02 08:00:00,
2013-03-02 00:10:00,48.8,16.2,30.19,South,171,2.0,6.0,27,0.00,CLR,,0.00,WeatherDisplay:10.37,2013-03-02 08:10:00,
2013-03-02 00:20:00,48.3,15.8,30.19,South,171,3.0,9.0,27,0.00,CLR,,0.00,WeatherDisplay:10.37,2013-03-02 08:20:00,
2013-03-02 00:30:00,48.2,15.8,30.19,South,174,3.0,7.0,27,0.00,CLR,,0.00,WeatherDisplay:10.37,2013-03-02 08:30:00,
2013-03-02 00:40:00,48.3,15.0,30.19,South,177,2.0,5.0,26,0.00,CLR,,0.00,WeatherDisplay:10.37,2013-03-02 08:40:00,
2013-03-02 00:50:00,47.6,15.2,30.19,South,177,3.0,5.0,27,0.00,CLR,,0.00,WeatherDisplay:10.37,2013-03-02 08:50:00,
2013-03-02 01:00:00,47.3,15.8,30.19,South,178,5.0,7.0,28,0.00,CLR,,0.00,WeatherDisplay:10.37,2013-03-02 09:00:00,
2013-03-02 01:10:00,47.0,14.7,30.19,South,178,3.0,5.0,27,0.00,CLR,,0.00,WeatherDisplay:10.37,2013-03-02 09:10:00,
2013-03-02 01:20:00,46.6,15.2,30.19,South,178,2.0,5.0,28,0.00,CLR,,0.00,WeatherDisplay:10.37,2013-03-02 09:20:00,
2013-03-02 01:30:00,46.2,15.6,30.18,South,178,0.0,4.0,29,0.00,CLR,,0.00,WeatherDisplay:10.37,2013-03-02 09:30:00,
2013-03-02 01:40:00,46.7,15.2,30.18,South,178,3.0,7.0,28,0.00,CLR,,0.00,WeatherDisplay:10.37,2013-03-02 09:40:00,
2013-03-02 01:50:00,46.4,15.0,30.18,South,175,2.0,6.0,28,0.00,CLR,,0.00,WeatherDisplay:10.37,2013-03-02 09:50:00,
2013-03-02 02:00:00,45.8,14.5,30.17,South,176,1.0,6.0,28,0.00,CLR,,0.00,WeatherDisplay:10.37,2013-03-02 10:00:00,
2013-03-02 02:20:00,45.4,14.9,30.17,South,178,1.0,4.0,29,0.00,CLR,,0.00,WeatherDisplay:10.37,2013-03-02 10:20:00,
2013-03-02 02:30:00,44.8,15.2,30.17,South,178,1.0,6.0,30,0.00,CLR,,0.00,WeatherDisplay:10.37,2013-03-02 10:30:00,
2013-03-02 02:35:00,44.6,15.0,30.17,South,178,2.0,6.0,30,0.00,CLR,,0.00,WeatherDisplay:10.37,2013-03-02 10:35:00,
2013-03-02 02:40:00,44.5,14.9,30.17,South,178,2.0,6.0,30,0.00,CLR,,0.00,WeatherDisplay:10.37,2013-03-02 10:40:00,
2013-03-02 02:50:00,44.5,15.7,30.16,South,178,3.0,6.0,31,0.00,CLR,,0.00,WeatherDisplay:10.37,2013-03-02 10:50:00,
2013-03-02 03:00:00,44.1,15.3,30.16,South,178,3.0,7.0,31,0.00,CLR,,0.00,WeatherDisplay:10.37,2013-03-02 11:00:00,
2013-03-02 03:05:00,43.9,15.2,30.16,South,178,2.0,7.0,31,0.00,CLR,,0.00,WeatherDisplay:10.37,2013-03-02 11:05:00,
2013-03-02 03:10:00,43.8,15.1,30.16,South,179,2.0,7.0,31,0.00,CLR,,0.00,WeatherDisplay:10.37,2013-03-02 11:10:00,
2013-03-02 03:20:00,44.1,15.3,30.16,South,180,2.0,6.0,31,0.00,CLR,,0.00,WeatherDisplay:10.37,2013-03-02 11:20:00,
2013-03-02 03:30:00,43.8,15.8,30.16,South,181,2.0,7.0,32,0.00,CLR,,0.00,WeatherDisplay:10.37,2013-03-02 11:30:00,
2013-03-02 03:40:00,43.8,15.8,30.16,South,182,3.0,7.0,32,0.00,CLR,,0.00,WeatherDisplay:10.37,2013-03-02 11:40:00,
2013-03-02 03:50:00,44.1,16.1,30.16,South,183,2.0,8.0,32,0.00,CLR,,0.00,WeatherDisplay:10.37,2013-03-02 11:50:00,
2013-03-02 04:00:00,44.3,15.5,30.16,South,184,1.0,5.0,31,0.00,CLR,,0.00,WeatherDisplay:10.37,2013-03-02 12:00:00,
2013-03-02 04:05:00,43.9,15.9,30.16,South,184,2.0,4.0,32,0.00,CLR,,0.00,WeatherDisplay:10.37,2013-03-02 12:05:00,
2013-03-02 04:10:00,43.3,15.4,30.16,South,184,3.0,5.0,32,0.00,CLR,,0.00,WeatherDisplay:10.37,2013-03-02 12:10:00,
2013-03-02 04:20:00,42.6,16.2,30.16,South,184,5.0,6.0,34,0.00,CLR,,0.00,WeatherDisplay:10.37,2013-03-02 12:20:00,
2013-03-02 04:30:00,42.8,17.0,30.17,South,184,3.0,5.0,35,0.00,CLR,,0.00,WeatherDisplay:10.37,2013-03-02 12:30:00,
2013-03-02 04:40:00,42.8,16.3,30.17,South,184,2.0,5.0,34,0.00,CLR,,0.00,WeatherDisplay:10.37,2013-03-02 12:40:00,
2013-03-02 04:50:00,42.1,16.4,30.17,South,184,0.0,0.0,35,0.00,CLR,,0.00,WeatherDisplay:10.37,2013-03-02 12:50:00,
2013-03-02 05:00:00,41.5,16.5,30.17,South,184,0.0,0.0,36,0.00,CLR,,0.00,WeatherDisplay:10.37,2013-03-02 13:00:00,
2013-03-02 05:05:00,41.2,17.4,30.17,South,184,0.0,0.0,38,0.00,CLR,,0.00,WeatherDisplay:10.37,2013-03-02 13:05:00,
2013-03-02 05:10:00,40.9,17.2,30.17,South,184,0.0,0.0,38,0.00,CLR,,0.00,WeatherDisplay:10.37,2013-03-02 13:10:00,
2013-03-02 05:20:00,41.3,16.3,30.17,South,184,3.0,5.0,36,0.00,CLR,,0.00,WeatherDisplay:10.37,2013-03-02 13:20:00,
2013-03-02 05:30:00,41.5,16.5,30.18,South,184,5.0,7.0,36,0.00,CLR,,0.00,WeatherDisplay:10.37,2013-03-02 13:30:00,
2013-03-02 05:40:00,41.6,16.6,30.18,South,184,5.0,6.0,36,0.00,CLR,,0.00,WeatherDisplay:10.37,2013-03-02 13:40:00,
2013-03-02 05:50:00,42.1,18.9,30.19,South,184,5.0,7.0,39,0.00,CLR,,0.00,WeatherDisplay:10.37,2013-03-02 13:50:00,
2013-03-02 06:00:00,42.3,16.6,30.18,South,184,5.0,8.0,35,0.00,CLR,,0.00,WeatherDisplay:10.37,2013-03-02 14:00:00,
2013-03-02 06:10:00,42.8,17.0,30.18,South,183,2.0,8.0,35,0.00,CLR,,0.00,WeatherDisplay:10.37,2013-03-02 14:10:00,
2013-03-02 06:20:00,43.2,16.7,30.19,South,184,3.0,8.0,34,0.00,CLR,,0.00,WeatherDisplay:10.37,2013-03-02 14:20:00,
2013-03-02 06:30:00,42.8,17.0,30.21,South,184,3.0,7.0,35,0.00,CLR,,0.00,WeatherDisplay:10.37,2013-03-02 14:30:00,
2013-03-02 06:40:00,43.9,17.3,30.22,South,184,2.0,6.0,34,0.00,CLR,,0.00,WeatherDisplay:10.37,2013-03-02 14:40:00,
2013-03-02 06:50:00,44.1,16.8,30.22,South,184,3.0,6.0,33,0.00,CLR,,0.00,WeatherDisplay:10.37,2013-03-02 14:50:00,
2013-03-02 07:00:00,43.4,16.9,30.22,South,184,1.0,5.0,34,0.00,CLR,,0.00,WeatherDisplay:10.37,2013-03-02 15:00:00,
2013-03-02 07:05:00,43.5,16.9,30.22,South,184,2.0,4.0,34,0.00,CLR,,0.00,WeatherDisplay:10.37,2013-03-02 15:05:00,
2013-03-02 07:10:00,43.5,16.9,30.22,South,184,1.0,4.0,34,0.00,CLR,,0.00,WeatherDisplay:10.37,2013-03-02 15:10:00,
2013-03-02 07:20:00,44.2,16.9,30.22,South,184,0.0,4.0,33,0.00,CLR,,0.00,WeatherDisplay:10.37,2013-03-02 15:20:00,
2013-03-02 07:30:00,45.4,17.2,30.23,South,184,0.0,0.0,32,0.00,CLR,,0.00,WeatherDisplay:10.37,2013-03-02 15:30:00,
2013-03-02 07:40:00,46.3,18.0,30.22,South,184,0.0,0.0,32,0.00,CLR,,0.00,WeatherDisplay:10.37,2013-03-02 15:40:00,
2013-03-02 07:50:00,48.1,17.3,30.22,South,184,0.0,0.0,29,0.00,CLR,,0.00,WeatherDisplay:10.37,2013-03-02 15:50:00,
2013-03-02 08:00:00,49.5,17.7,30.22,South,184,0.0,0.0,28,0.00,CLR,,0.00,WeatherDisplay:10.37,2013-03-02 16:00:00,
2013-03-02 08:05:00,50.0,18.1,30.22,South,184,0.0,0.0,28,0.00,CLR,,0.00,WeatherDisplay:10.37,2013-03-02 16:05:00,
2013-03-02 08:10:00,50.8,17.9,30.22,South,184,0.0,0.0,27,0.00,CLR,,0.00,WeatherDisplay:10.37,2013-03-02 16:10:00,
2013-03-02 08:20:00,52.2,18.3,30.21,South,184,0.0,0.0,26,0.00,CLR,,0.00,WeatherDisplay:10.37,2013-03-02 16:20:00,
2013-03-02 08:30:00,53.7,18.6,30.20,South,184,0.0,0.0,25,0.00,CLR,,0.00,WeatherDisplay:10.37,2013-03-02 16:30:00,
2013-03-02 08:40:00,54.8,18.6,30.20,South,184,0.0,2.0,24,0.00,CLR,,0.00,WeatherDisplay:10.37,2013-03-02 16:40:00,
2013-03-02 08:50:00,55.6,18.3,30.20,South,184,0.0,2.0,23,0.00,CLR,,0.00,WeatherDisplay:10.37,2013-03-02 16:50:00,
2013-03-02 09:00:00,56.6,18.2,30.20,South,184,0.0,2.0,22,0.00,CLR,,0.00,WeatherDisplay:10.37,2013-03-02 17:00:00,
2013-03-02 09:05:00,57.3,18.7,30.20,South,184,0.0,0.0,22,0.00,CLR,,0.00,WeatherDisplay:10.37,2013-03-02 17:05:00,
2013-03-02 09:10:00,58.4,18.5,30.19,South,184,0.0,0.0,21,0.00,CLR,,0.00,WeatherDisplay:10.37,2013-03-02 17:10:00,
2013-03-02 09:20:00,59.9,18.7,30.19,South,184,0.0,0.0,20,0.00,CLR,,0.00,WeatherDisplay:10.37,2013-03-02 17:20:00,
2013-03-02 09:30:00,61.7,19.0,30.18,South,184,0.0,0.0,19,0.00,CLR,,0.00,WeatherDisplay:10.37,2013-03-02 17:30:00,
2013-03-02 09:40:00,63.7,19.3,30.17,South,184,0.0,0.0,18,0.00,CLR,,0.00,WeatherDisplay:10.37,2013-03-02 17:40:00,
2013-03-02 09:50:00,64.0,19.6,30.17,South,184,0.0,0.0,18,0.00,CLR,,0.00,WeatherDisplay:10.37,2013-03-02 17:50:00,
2013-03-02 10:00:00,65.7,18.3,30.16,South,184,0.0,0.0,16,0.00,CLR,,0.00,WeatherDisplay:10.37,2013-03-02 18:00:00,
2013-03-02 10:10:00,66.8,19.1,30.15,South,184,0.0,0.0,16,0.00,CLR,,0.00,WeatherDisplay:10.37,2013-03-02 18:10:00,
2013-03-02 10:20:00,67.9,20.0,30.15,South,184,0.0,0.0,16,0.00,CLR,,0.00,WeatherDisplay:10.37,2013-03-02 18:20:00,
2013-03-02 10:30:00,68.6,19.1,30.15,South,184,0.0,0.0,15,0.00,CLR,,0.00,WeatherDisplay:10.37,2013-03-02 18:30:00,
2013-03-02 10:40:00,69.2,19.6,30.15,South,184,0.0,0.0,15,0.00,CLR,,0.00,WeatherDisplay:10.37,2013-03-02 18:40:00,
2013-03-02 10:50:00,69.6,19.9,30.14,South,184,0.0,0.0,15,0.00,CLR,,0.00,WeatherDisplay:10.37,2013-03-02 18:50:00,
2013-03-02 11:00:00,70.1,18.6,30.13,SE,130,2.0,4.0,14,0.00,CLR,,0.00,WeatherDisplay:10.37,2013-03-02 19:00:00,
2013-03-02 11:10:00,70.4,18.8,30.13,ESE,121,0.0,3.0,14,0.00,CLR,,0.00,WeatherDisplay:10.37,2013-03-02 19:10:00,
2013-03-02 11:20:00,72.1,20.2,30.11,ESE,121,1.0,3.0,14,0.00,CLR,,0.00,WeatherDisplay:10.37,2013-03-02 19:20:00,
2013-03-02 11:30:00,71.8,20.0,30.10,ESE,110,1.0,4.0,14,0.00,CLR,,0.00,WeatherDisplay:10.37,2013-03-02 19:30:00,
2013-03-02 11:40:00,72.1,20.2,30.10,East,90,0.0,5.0,14,0.00,CLR,,0.00,WeatherDisplay:10.37,2013-03-02 19:40:00,
2013-03-02 11:50:00,72.8,20.8,30.09,East,86,1.0,6.0,14,0.00,CLR,,0.00,WeatherDisplay:10.37,2013-03-02 19:50:00,
2013-03-02 12:00:00,72.9,20.9,30.08,East,80,3.0,6.0,14,0.00,CLR,,0.00,WeatherDisplay:10.37,2013-03-02 20:00:00,
2013-03-02 12:10:00,73.2,21.1,30.08,ENE,77,0.0,1.0,14,0.00,CLR,,0.00,WeatherDisplay:10.37,2013-03-02 20:10:00,
2013-03-02 12:20:00,73.7,19.7,30.07,ENE,74,2.0,6.0,13,0.00,CLR,,0.00,WeatherDisplay:10.37,2013-03-02 20:20:00,
2013-03-02 12:30:00,74.0,20.0,30.07,ENE,64,2.0,5.0,13,0.00,CLR,,0.00,WeatherDisplay:10.37,2013-03-02 20:30:00,
2013-03-02 12:40:00,74.4,20.3,30.06,ENE,64,2.0,6.0,13,0.00,CLR,,0.00,WeatherDisplay:10.37,2013-03-02 20:40:00,
2013-03-02 12:50:00,74.8,20.7,30.05,ENE,65,2.0,5.0,13,0.00,CLR,,0.00,WeatherDisplay:10.37,2013-03-02 20:50:00,
2013-03-02 13:00:00,75.6,19.3,30.03,ENE,62,2.0,7.0,12,0.00,CLR,,0.00,WeatherDisplay:10.37,2013-03-02 21:00:00,
2013-03-02 13:10:00,73.9,19.9,30.04,NNW,345,5.0,7.0,13,0.00,CLR,,0.00,WeatherDisplay:10.37,2013-03-02 21:10:00,
2013-03-02 13:20:00,74.0,20.0,30.03,NW,311,0.0,2.0,13,0.00,CLR,,0.00,WeatherDisplay:10.37,2013-03-02 21:20:00,
2013-03-02 13:30:00,74.6,20.5,30.02,NW,311,0.0,0.0,13,0.00,CLR,,0.00,WeatherDisplay:10.37,2013-03-02 21:30:00,
2013-03-02 13:40:00,74.2,20.1,30.02,NW,311,0.0,4.0,13,0.00,CLR,,0.00,WeatherDisplay:10.37,2013-03-02 21:40:00,
2013-03-02 13:50:00,75.1,19.0,30.01,NW,308,0.0,0.0,12,0.00,CLR,,0.00,WeatherDisplay:10.37,2013-03-02 21:50:00,
2013-03-02 14:00:00,75.6,19.4,30.01,NW,307,0.0,3.0,12,0.00,CLR,,0.00,WeatherDisplay:10.37,2013-03-02 22:00:00,
2013-03-02 14:05:00,76.2,19.8,30.01,NNE,30,5.0,9.0,12,0.00,CLR,,0.00,WeatherDisplay:10.37,2013-03-02 22:05:00,
2013-03-02 14:10:00,76.7,18.2,30.00,SSE,151,5.0,12.0,11,0.00,CLR,,0.00,WeatherDisplay:10.37,2013-03-02 22:10:00,
2013-03-02 14:20:00,76.3,17.9,30.00,SE,145,2.0,7.0,11,0.00,CLR,,0.00,WeatherDisplay:10.37,2013-03-02 22:20:00,
2013-03-02 14:30:00,76.1,17.7,30.00,SSE,160,8.0,14.0,11,0.00,CLR,,0.00,WeatherDisplay:10.37,2013-03-02 22:30:00,
2013-03-02 14:40:00,76.3,17.9,30.00,SSE,157,3.0,9.0,11,0.00,CLR,,0.00,WeatherDisplay:10.37,2013-03-02 22:40:00,
2013-03-02 14:50:00,75.7,17.4,29.99,SSE,148,6.0,13.0,11,0.00,CLR,,0.00,WeatherDisplay:10.37,2013-03-02 22:50:00,
2013-03-02 14:55:00,75.9,17.6,29.99,SE,146,6.0,12.0,11,0.00,CLR,,0.00,WeatherDisplay:10.37,2013-03-02 22:55:00,
2013-03-02 15:05:00,75.3,14.9,29.99,South,175,0.0,9.0,10,0.00,CLR,,0.00,WeatherDisplay:10.37,2013-03-02 23:05:00,
2013-03-02 15:10:00,75.1,14.8,29.99,South,175,1.0,12.0,10,0.00,CLR,,0.00,WeatherDisplay:10.37,2013-03-02 23:10:00,
2013-03-02 15:20:00,75.3,12.5,29.98,South,189,2.0,10.0,9,0.00,CLR,,0.00,WeatherDisplay:10.37,2013-03-02 23:20:00,
2013-03-02 15:30:00,75.3,17.1,29.97,South,185,3.0,10.0,11,0.00,CLR,,0.00,WeatherDisplay:10.37,2013-03-02 23:30:00,
2013-03-02 15:40:00,74.7,16.6,29.97,South,184,1.0,10.0,11,0.00,CLR,,0.00,WeatherDisplay:10.37,2013-03-02 23:40:00,
2013-03-02 15:50:00,74.6,16.6,29.96,South,172,1.0,9.0,11,0.00,CLR,,0.00,WeatherDisplay:10.37,2013-03-02 23:50:00,
2013-03-02 16:00:00,74.4,16.4,29.97,South,177,1.0,4.0,11,0.00,CLR,,0.00,WeatherDisplay:10.37,2013-03-03 00:00:00,
2013-03-02 16:05:00,74.2,16.3,29.96,SSE,167,5.0,10.0,11,0.00,CLR,,0.00,WeatherDisplay:10.37,2013-03-03 00:05:00,
2013-03-02 16:10:00,73.9,16.0,29.96,SSW,193,10.0,13.0,11,0.00,CLR,,0.00,WeatherDisplay:10.37,2013-03-03 00:10:00,
2013-03-02 16:20:00,73.9,16.0,29.96,SW,217,12.0,14.0,11,0.00,CLR,,0.00,WeatherDisplay:10.37,2013-03-03 00:20:00,
2013-03-02 16:30:00,73.6,15.8,29.96,SW,216,12.0,15.0,11,0.00,CLR,,0.00,WeatherDisplay:10.37,2013-03-03 00:30:00,
2013-03-02 16:40:00,73.9,16.1,29.95,SSW,212,12.0,15.0,11,0.00,CLR,,0.00,WeatherDisplay:10.37,2013-03-03 00:40:00,
2013-03-02 16:50:00,73.9,16.0,29.95,SSW,211,9.0,15.0,11,0.00,CLR,,0.00,WeatherDisplay:10.37,2013-03-03 00:50:00,
2013-03-02 17:00:00,73.1,17.4,29.95,SSW,208,10.0,14.0,12,0.00,CLR,,0.00,WeatherDisplay:10.37,2013-03-03 01:00:00,
2013-03-02 17:05:00,72.8,17.2,29.95,SSW,203,8.0,13.0,12,0.00,CLR,,0.00,WeatherDisplay:10.37,2013-03-03 01:05:00,
2013-03-02 17:10:00,72.5,16.9,29.95,SSW,202,9.0,12.0,12,0.00,CLR,,0.00,WeatherDisplay:10.37,2013-03-03 01:10:00,
2013-03-02 17:20:00,72.1,18.5,29.95,SSW,198,8.0,13.0,13,0.00,CLR,,0.00,WeatherDisplay:10.37,2013-03-03 01:20:00,
2013-03-02 17:30:00,71.8,18.3,29.95,SSW,202,7.0,12.0,13,0.00,CLR,,0.00,WeatherDisplay:10.37,2013-03-03 01:30:00,
2013-03-02 17:40:00,71.1,17.7,29.95,SSW,196,3.0,8.0,13,0.00,CLR,,0.00,WeatherDisplay:10.37,2013-03-03 01:40:00,
2013-03-02 17:50:00,70.3,18.8,29.95,South,180,2.0,7.0,14,0.00,CLR,,0.00,WeatherDisplay:10.37,2013-03-03 01:50:00,
2013-03-02 18:00:00,69.4,18.1,29.95,South,173,2.0,6.0,14,0.00,CLR,,0.00,WeatherDisplay:10.37,2013-03-03 02:00:00,
2013-03-02 18:05:00,68.9,17.7,29.95,South,178,5.0,7.0,14,0.00,CLR,,0.00,WeatherDisplay:10.37,2013-03-03 02:05:00,
2013-03-02 18:10:00,68.6,17.4,29.95,South,181,1.0,6.0,14,0.00,CLR,,0.00,WeatherDisplay:10.37,2013-03-03 02:10:00,
2013-03-02 18:20:00,67.4,18.1,29.96,South,182,2.0,5.0,15,0.00,CLR,,0.00,WeatherDisplay:10.37,2013-03-03 02:20:00,
2013-03-02 18:30:00,66.1,17.1,29.96,South,183,0.0,5.0,15,0.00,CLR,,0.00,WeatherDisplay:10.37,2013-03-03 02:30:00,
2013-03-02 18:40:00,65.3,17.9,29.96,South,183,0.0,0.0,16,0.00,CLR,,0.00,WeatherDisplay:10.37,2013-03-03 02:40:00,
2013-03-02 18:50:00,64.7,17.4,29.96,South,183,0.0,0.0,16,0.00,CLR,,0.00,WeatherDisplay:10.37,2013-03-03 02:50:00,
2013-03-02 19:00:00,64.3,18.5,29.96,South,183,1.0,4.0,17,0.00,CLR,,0.00,WeatherDisplay:10.37,2013-03-03 03:00:00,
2013-03-02 19:05:00,64.2,18.4,29.97,South,183,3.0,6.0,17,0.00,CLR,,0.00,WeatherDisplay:10.37,2013-03-03 03:05:00,
2013-03-02 19:10:00,64.0,18.3,29.97,South,184,1.0,5.0,17,0.00,CLR,,0.00,WeatherDisplay:10.37,2013-03-03 03:10:00,
2013-03-02 19:20:00,64.4,18.6,29.96,South,187,7.0,10.0,17,0.00,CLR,,0.00,WeatherDisplay:10.37,2013-03-03 03:20:00,
2013-03-02 19:30:00,64.3,18.5,29.94,SSW,195,5.0,10.0,17,0.00,CLR,,0.00,WeatherDisplay:10.37,2013-03-03 03:30:00,
2013-03-02 19:40:00,64.5,18.7,29.94,SSW,202,8.0,13.0,17,0.00,CLR,,0.00,WeatherDisplay:10.37,2013-03-03 03:40:00,
2013-03-02 19:50:00,64.3,18.5,29.94,SSW,198,8.0,14.0,17,0.00,CLR,,0.00,WeatherDisplay:10.37,2013-03-03 03:50:00,
2013-03-02 20:00:00,64.3,19.8,29.94,South,189,9.0,14.0,18,0.00,CLR,,0.00,WeatherDisplay:10.37,2013-03-03 04:00:00,
2013-03-02 20:05:00,64.3,19.8,29.94,SSW,192,8.0,15.0,18,0.00,CLR,,0.00,WeatherDisplay:10.37,2013-03-03 04:05:00,
2013-03-02 20:10:00,64.1,19.7,29.94,SSW,193,8.0,17.0,18,0.00,CLR,,0.00,WeatherDisplay:10.37,2013-03-03 04:10:00,
2013-03-02 20:20:00,63.5,20.5,29.94,SSW,196,7.0,16.0,19,0.00,CLR,,0.00,WeatherDisplay:10.37,2013-03-03 04:20:00,
2013-03-02 20:30:00,63.4,20.4,29.93,SSW,193,10.0,14.0,19,0.00,CLR,,0.00,WeatherDisplay:10.37,2013-03-03 04:30:00,
2013-03-02 20:40:00,62.9,21.2,29.93,SSW,202,9.0,13.0,20,0.00,CLR,,0.00,WeatherDisplay:10.37,2013-03-03 04:40:00,
2013-03-02 20:50:00,61.9,20.3,29.93,SSW,203,9.0,12.0,20,0.00,CLR,,0.00,WeatherDisplay:10.37,2013-03-03 04:50:00,
2013-03-02 21:00:00,63.5,20.5,29.93,SSW,212,10.0,14.0,19,0.00,CLR,,0.00,WeatherDisplay:10.37,2013-03-03 05:00:00,
2013-03-02 21:05:00,63.2,20.2,29.94,SSW,212,13.0,15.0,19,0.00,CLR,,0.00,WeatherDisplay:10.37,2013-03-03 05:05:00,
2013-03-02 21:10:00,63.5,20.4,29.93,SSW,211,10.0,14.0,19,0.00,CLR,,0.00,WeatherDisplay:10.37,2013-03-03 05:10:00,
2013-03-02 21:20:00,65.0,21.7,29.93,SSW,202,7.0,16.0,19,0.00,CLR,,0.00,WeatherDisplay:10.37,2013-03-03 05:20:00,
2013-03-02 21:30:00,64.0,20.9,29.92,SSW,207,13.0,15.0,19,0.00,CLR,,0.00,WeatherDisplay:10.37,2013-03-03 05:30:00,
2013-03-02 21:35:00,63.9,20.8,29.91,SSW,205,9.0,14.0,19,0.00,CLR,,0.00,WeatherDisplay:10.37,2013-03-03 05:35:00,
2013-03-02 21:40:00,64.6,21.3,29.91,SSW,200,10.0,14.0,19,0.00,CLR,,0.00,WeatherDisplay:10.37,2013-03-03 05:40:00,
2013-03-02 21:50:00,65.1,21.8,29.91,SW,217,10.0,18.0,19,0.00,CLR,,0.00,WeatherDisplay:10.37,2013-03-03 05:50:00,
2013-03-02 22:00:00,66.0,21.2,29.91,SSW,212,14.0,20.0,18,0.00,CLR,,0.00,WeatherDisplay:10.37,2013-03-03 06:00:00,
2013-03-02 22:05:00,64.7,21.4,29.91,SW,219,13.0,15.0,19,0.00,CLR,,0.00,WeatherDisplay:10.37,2013-03-03 06:05:00,
2013-03-02 22:10:00,63.6,21.7,29.91,SW,222,10.0,13.0,20,0.00,CLR,,0.00,WeatherDisplay:10.37,2013-03-03 06:10:00,
2013-03-02 22:20:00,62.7,21.0,29.92,SSW,208,9.0,12.0,20,0.00,CLR,,0.00,WeatherDisplay:10.37,2013-03-03 06:20:00,
2013-03-02 22:30:00,62.0,22.7,29.90,SSW,212,7.0,10.0,22,0.00,CLR,,0.00,WeatherDisplay:10.37,2013-03-03 06:30:00,
2013-03-02 22:40:00,62.7,22.2,29.90,SSW,200,7.0,12.0,21,0.00,CLR,,0.00,WeatherDisplay:10.37,2013-03-03 06:40:00,
2013-03-02 22:50:00,61.5,22.3,29.90,SSW,201,8.0,12.0,22,0.00,CLR,,0.00,WeatherDisplay:10.37,2013-03-03 06:50:00,
2013-03-02 23:00:00,59.8,21.9,29.90,South,173,7.0,12.0,23,0.00,CLR,,0.00,WeatherDisplay:10.37,2013-03-03 07:00:00,
2013-03-02 23:05:00,59.5,21.6,29.90,South,183,6.0,13.0,23,0.00,CLR,,0.00,WeatherDisplay:10.37,2013-03-03 07:05:00,
2013-03-02 23:10:00,59.6,21.7,29.89,South,187,3.0,16.0,23,0.00,CLR,,0.00,WeatherDisplay:10.37,2013-03-03 07:10:00,
2013-03-02 23:20:00,59.4,20.5,29.89,SSW,193,8.0,15.0,22,0.00,CLR,,0.00,WeatherDisplay:10.37,2013-03-03 07:20:00,
2013-03-02 23:30:00,60.7,21.6,29.88,SSW,198,8.0,13.0,22,0.00,CLR,,0.00,WeatherDisplay:10.37,2013-03-03 07:30:00,
2013-03-02 23:40:00,61.0,21.8,29.88,South,191,10.0,17.0,22,0.00,CLR,,0.00,WeatherDisplay:10.37,2013-03-03 07:40:00,
2013-03-02 23:50:00,60.7,21.6,29.88,SSW,199,9.0,14.0,22,0.00,CLR,,0.00,WeatherDisplay:10.37,2013-03-03 07:50:00,